Home > Weather > Mountain View > Past weeks

Flag for U.S.A. Weather for the Past 2 Weeks in Mountain View, California, U.S.A.

Now
61 °F

Clear.


Feels Like: 61 °F
Forecast: 49 / 66 °F
Wind: 5 mph from Northwest

Location: Moffett Field

Current Time: Feb 12, 2016 at 7:17:16 PM

Latest Report: Feb 12, 2016 at 5:56 PM


Visibility: 10 mi

Pressure: 30.20 "Hg

Humidity: 81%

Dew point: 55 °F

Location of Mountain ViewLocation

Historic Weather in Mountain View — Graph

°F

Mountain View Temperature Yesterday

Maximum temperature yesterday: 70 °F (at 3:56 PM)
Minimum temperature yesterday: 48 °F (at 6:56 AM)
Average temperature yesterday: 58 °F

High & Low Weather Summary for the Past Weeks

 TemperatureHumidityPressure
High74 °F (Feb 8, 2:56 PM)96% (Jan 29, 11:56 PM)30.48 "Hg (Jan 29, 11:56 PM)
Low40 °F (Feb 3, 3:56 AM)31% (Feb 7, 3:56 PM)29.78 "Hg (Jan 31, 1:56 PM)
Average55 °F68%30.22 "Hg
* Reported Jan 28 4:56 PM — Feb 12 4:56 PM, Mountain View, Weather by CustomWeather, © 2016

Note: Actual official high and low records may vary slightly from our data, if they occured in-between our weather recording intervals... More about our weather records

Advertising

Mountain View Weather History for the Previous 24 Hours

 ConditionsComfort  
Time TempWeatherWind HumidityBarometerVisibility
4:56 PM
Fri, Feb 12
63 °FSunny.8 mph75%30.19 "Hg10 mi
3:56 PM64 °FSunny.8 mph75%30.18 "Hg10 mi
2:56 PM67 °FSunny.12 mph57%30.18 "Hg10 mi
1:56 PM68 °FSunny.7 mph57%30.19 "Hg10 mi
12:56 PM65 °FSunny.5 mph61%30.22 "Hg10 mi
11:56 AM64 °FSunny.6 mph65%30.24 "Hg10 mi
10:56 AM62 °FSunny.3 mph70%30.25 "Hg10 mi
9:56 AM59 °FSunny.3 mph81%30.25 "Hg7 mi
8:56 AM56 °FSunny.3 mph84%30.24 "Hg7 mi
7:56 AM53 °FFog.No wind86%30.23 "Hg4 mi
6:56 AM50 °FPassing clouds.3 mph86%30.23 "Hg10 mi
5:56 AM49 °FClear.No wind90%30.21 "Hg10 mi
4:56 AM50 °FClear.No wind89%30.20 "Hg10 mi
3:56 AM50 °FClear.No wind89%30.20 "Hg9 mi
2:56 AM52 °FClear.No wind86%30.21 "Hg10 mi
1:56 AM52 °FClear.No wind89%30.22 "Hg8 mi
12:56 AM53 °FClear.No wind89%30.22 "Hg10 mi
11:56 PM
Thu, Feb 11
56 °FClear.No wind84%30.22 "Hg10 mi
10:56 PM57 °FClear.5 mph81%30.21 "Hg10 mi
9:56 PM56 °FClear.No wind84%30.19 "Hg10 mi
8:56 PM58 °FClear.3 mph78%30.19 "Hg10 mi
7:56 PM59 °FClear.No wind78%30.16 "Hg10 mi
Weather by CustomWeather, © 2016

See weather overviewHow to use our weather pages